Weather History for Port Lavaca, TX

Change the Weather History Date:

Sunday, September 22, 2013

  Actual Average (KVCT) Record (KVCT)
Temperature  
Mean Temperature 75 °F 78 °F  
Max Temperature 84 °F 89 °F 103 °F (1926)
Min Temperature 66 °F 68 °F 51 °F (1983)
Degree Days  
Heating Degree Days 0 0  
Month to date heating degree days 0  
Since 1 July heating degree days 0  
Cooling Degree Days 10 13  
Month to date cooling degree days 348  
Year to date cooling degree days 2701  
Growing Degree Days 25 (Base 50)    
Moisture  
Dew Point 64 °F    
Average Humidity 71    
Maximum Humidity 91    
Minimum Humidity 46    
Precipitation  
Precipitation 0.00 in 0.13 in 2.87 in (1958)
Month to date precipitation 3.16  
Year to date precipitation 30.03  
Snow  
Snow 0.00 in - - ()
Month to date snowfall  
Since 1 July snowfall  
Since 1 September snowfall  
Snow Depth -    
Sea Level Pressure  
Sea Level Pressure 29.79 in    
Wind  
Wind Speed 8 mph (NNE)    
Max Wind Speed 16 mph    
Max Gust Speed 20 mph    
Visibility 10 miles    
Events      
T = Trace of Precipitation, MM = Missing Value Source: NWS Daily Summary

Daily Weather History Graph

Daily Weather History Graph

Search for Another Location

Airport:

Trip Planner

Search our weather history database for the weather conditions in past years. The results will help you decide how hot, cold, wet, or windy it might be!

Date:

Astronomy

Sep. 22, 2013 Rise Set
Actual Time 7:15 AM CDT 7:22 PM CDT
Civil Twilight 6:51 AM CDT 7:46 PM CDT
Nautical Twilight 6:24 AM CDT 8:13 PM CDT
Astronomical Twilight 5:56 AM CDT 8:41 PM CDT
Moon 9:33 PM CDT (9/22) 10:17 AM CDT (9/22)
Length of Visible Light 12h 54m
Length of Day
12h 07m
Waning Gibbous, 88% of the Moon is Illuminated
Sep 22
Waning Gibbous
Sep 26
Last Quarter
Oct 4
New
Oct 11
First Quarter
Oct 18
Full

Hourly Weather History & Observations

Time (CDT) Temp. Heat Index Dew Point Humidity Pressure Visibility Wind Dir Wind Speed Gust Speed Precip Events Conditions
12:15 AM 73.4 °F - 68.0 °F 83% 29.81 in 10.0 mi North 5.8 mph - N/A   Overcast
12:35 AM 73.4 °F - 68.0 °F 83% 29.81 in 10.0 mi North 5.8 mph - N/A   Overcast
12:55 AM 73.0 °F - 68.0 °F 84% 29.80 in 10.0 mi NNW 4.6 mph - N/A   Overcast
1:15 AM 72.5 °F - 68.0 °F 86% 29.80 in 10.0 mi NNW 4.6 mph - N/A   Overcast
1:35 AM 72.1 °F - 68.0 °F 87% 29.80 in 10.0 mi NNW 4.6 mph - N/A   Overcast
1:55 AM 72.0 °F - 67.6 °F 86% 29.80 in 10.0 mi NNW 4.6 mph - N/A   Overcast
2:15 AM 72.1 °F - 67.3 °F 85% 29.80 in 10.0 mi NNW 5.8 mph - N/A   Overcast
2:35 AM 71.8 °F - 67.5 °F 86% 29.80 in 10.0 mi NNW 5.8 mph - N/A   Overcast
2:55 AM 71.6 °F - 67.1 °F 86% 29.80 in 10.0 mi NNW 5.8 mph - N/A   Overcast
3:15 AM 70.7 °F - 66.6 °F 87% 29.79 in 10.0 mi North 5.8 mph - N/A   Scattered Clouds
3:35 AM 70.2 °F - 66.2 °F 87% 29.78 in 10.0 mi North 6.9 mph - N/A   Clear
3:55 AM 69.8 °F - 66.0 °F 88% 29.78 in 10.0 mi North 9.2 mph - N/A   Clear
4:15 AM 69.1 °F - 65.5 °F 88% 29.77 in 10.0 mi North 9.2 mph - N/A   Clear
4:35 AM 69.1 °F - 65.3 °F 88% 29.77 in 10.0 mi North 9.2 mph - N/A   Clear
4:55 AM 68.9 °F - 65.3 °F 88% 29.77 in 10.0 mi North 8.1 mph - N/A   Clear
5:15 AM 68.5 °F - 65.1 °F 89% 29.77 in 10.0 mi North 8.1 mph - N/A   Clear
5:35 AM 68.0 °F - 64.8 °F 89% 29.78 in 10.0 mi North 5.8 mph - N/A   Clear
5:55 AM 67.5 °F - 64.6 °F 90% 29.78 in 10.0 mi North 9.2 mph - N/A   Clear
6:15 AM 68.0 °F - 64.6 °F 89% 29.78 in 10.0 mi North 9.2 mph - N/A   Clear
6:35 AM 67.3 °F - 64.4 °F 90% 29.79 in 10.0 mi North 9.2 mph - N/A   Clear
6:55 AM 67.1 °F - 64.2 °F 90% 29.80 in 10.0 mi North 6.9 mph - N/A   Clear
7:15 AM 66.7 °F - 64.0 °F 91% 29.80 in 10.0 mi North 9.2 mph - N/A   Clear
7:35 AM 66.6 °F - 63.7 °F 90% 29.80 in 10.0 mi North 8.1 mph - N/A   Clear
7:55 AM 67.1 °F - 63.5 °F 88% 29.80 in 10.0 mi North 8.1 mph - N/A   Clear
8:15 AM 68.2 °F - 63.5 °F 85% 29.81 in 10.0 mi North 9.2 mph - N/A   Clear
8:35 AM 69.6 °F - 63.1 °F 80% 29.81 in 10.0 mi North 9.2 mph - N/A   Clear
8:55 AM 70.9 °F - 63.0 °F 76% 29.82 in 10.0 mi NNE 10.4 mph - N/A   Clear
9:15 AM 72.5 °F - 62.2 °F 70% 29.82 in 10.0 mi NNE 10.4 mph - N/A   Clear
9:35 AM 73.2 °F - 61.9 °F 68% 29.83 in 10.0 mi NNE 11.5 mph - N/A   Clear
9:55 AM 73.8 °F - 61.9 °F 66% 29.83 in 10.0 mi NNE 12.7 mph - N/A   Clear
10:15 AM 75.0 °F - 62.8 °F 66% 29.83 in 10.0 mi NNE 10.4 mph - N/A   Clear
10:35 AM 75.7 °F - 62.6 °F 64% 29.83 in 10.0 mi NE 13.8 mph 17.3 mph N/A   Clear
10:55 AM 76.3 °F - 61.9 °F 61% 29.84 in 10.0 mi NNE 10.4 mph - N/A   Clear
11:15 AM 78.1 °F - 62.2 °F 58% 29.83 in 10.0 mi NNE 11.5 mph 17.3 mph N/A   Clear
11:35 AM 78.6 °F - 61.9 °F 56% 29.83 in 10.0 mi NNE 11.5 mph - N/A   Clear
11:55 AM 79.2 °F - 63.1 °F 58% 29.83 in 10.0 mi NE 11.5 mph - N/A   Clear
12:15 PM 80.1 °F 81.8 °F 64.6 °F 59% 29.83 in 10.0 mi NNE 12.7 mph 18.4 mph N/A   Clear
12:35 PM 80.6 °F 82.2 °F 64.0 °F 57% 29.83 in 10.0 mi NNE 9.2 mph - N/A   Clear
12:55 PM 81.0 °F 82.6 °F 64.2 °F 57% 29.82 in 10.0 mi NE 13.8 mph 17.3 mph N/A   Clear
1:15 PM 81.7 °F 83.2 °F 64.2 °F 55% 29.81 in 10.0 mi NE 11.5 mph - N/A   Clear
1:35 PM 81.9 °F 83.4 °F 64.4 °F 55% 29.81 in 10.0 mi NNE 11.5 mph - N/A   Clear
1:55 PM 82.0 °F 83.8 °F 64.9 °F 56% 29.80 in 10.0 mi North 13.8 mph - N/A   Scattered Clouds
2:15 PM 82.4 °F 84.1 °F 64.8 °F 55% 29.79 in 10.0 mi NE 12.7 mph 17.3 mph N/A   Scattered Clouds
2:35 PM 83.1 °F 84.6 °F 64.2 °F 53% 29.78 in 10.0 mi NNE 15.0 mph - N/A   Clear
2:55 PM 82.9 °F 84.2 °F 63.7 °F 52% 29.77 in 10.0 mi NE 15.0 mph 19.6 mph N/A   Clear
3:15 PM 83.5 °F 84.5 °F 63.3 °F 50% 29.77 in 10.0 mi NE 16.1 mph 19.6 mph N/A   Clear
3:35 PM 83.5 °F 84.7 °F 63.5 °F 51% 29.76 in 10.0 mi North 12.7 mph 17.3 mph N/A   Scattered Clouds
3:55 PM 84.0 °F 84.9 °F 63.1 °F 49% 29.75 in 10.0 mi North 10.4 mph - N/A   Scattered Clouds
4:15 PM 84.0 °F 84.9 °F 63.1 °F 49% 29.74 in 10.0 mi NNE 11.5 mph 17.3 mph N/A   Clear
4:35 PM 84.0 °F 84.9 °F 63.0 °F 49% 29.74 in 10.0 mi North 12.7 mph 16.1 mph N/A   Clear
4:55 PM 84.0 °F 84.7 °F 62.2 °F 48% 29.74 in 10.0 mi North 11.5 mph - N/A   Clear
5:15 PM 83.8 °F 84.1 °F 61.0 °F 46% 29.73 in 10.0 mi NNE 11.5 mph 18.4 mph N/A   Clear
5:35 PM 83.7 °F 83.9 °F 60.6 °F 46% 29.73 in 10.0 mi NNE 12.7 mph 16.1 mph N/A   Clear
5:55 PM 83.5 °F 83.7 °F 61.0 °F 46% 29.74 in 10.0 mi North 8.1 mph - N/A   Clear
6:15 PM 82.9 °F 83.3 °F 60.6 °F 47% 29.74 in 10.0 mi NNE 8.1 mph - N/A   Clear
6:35 PM 81.9 °F 82.5 °F 61.0 °F 49% 29.74 in 10.0 mi North 8.1 mph - N/A   Clear
6:55 PM 80.4 °F 81.4 °F 61.2 °F 52% 29.74 in 10.0 mi North 6.9 mph - N/A   Clear
7:15 PM 77.7 °F - 62.4 °F 59% 29.75 in 10.0 mi North 5.8 mph - N/A   Clear
7:35 PM 75.4 °F - 63.0 °F 65% 29.75 in 10.0 mi NNE 5.8 mph - N/A   Clear
7:55 PM 74.8 °F - 63.7 °F 68% 29.75 in 10.0 mi Calm Calm - N/A   Clear
8:15 PM 74.5 °F - 62.6 °F 66% 29.75 in 10.0 mi North 5.8 mph - N/A   Clear
8:35 PM 73.4 °F - 63.1 °F 70% 29.76 in 10.0 mi North 5.8 mph - N/A   Scattered Clouds
8:55 PM 72.5 °F - 63.5 °F 73% 29.77 in 10.0 mi NNE 8.1 mph - N/A   Mostly Cloudy
9:15 PM 72.0 °F - 64.0 °F 76% 29.77 in 10.0 mi NE 4.6 mph - N/A   Scattered Clouds
9:35 PM 73.8 °F - 65.8 °F 76% 29.77 in 10.0 mi ENE 9.2 mph - N/A   Clear
9:55 PM 74.3 °F - 66.9 °F 78% 29.78 in 10.0 mi East 11.5 mph - N/A   Clear
10:15 PM 73.8 °F - 66.0 °F 77% 29.78 in 10.0 mi East 10.4 mph - N/A   Clear
10:35 PM 73.4 °F - 65.5 °F 76% 29.79 in 10.0 mi East 8.1 mph - N/A   Clear
10:55 PM 72.5 °F - 65.3 °F 78% 29.78 in 10.0 mi East 8.1 mph - N/A   Clear
11:15 PM 72.0 °F - 65.3 °F 79% 29.78 in 10.0 mi East 5.8 mph - N/A   Clear
11:35 PM 71.6 °F - 65.1 °F 80% 29.78 in 10.0 mi ENE 4.6 mph - N/A   Clear
11:55 PM 70.9 °F - 64.9 °F 81% 29.78 in 10.0 mi NE 4.6 mph - N/A   Clear